Wind_Speed
42 42 43 44 44 44 44 44 45 45 46 47 48 47 46 46 46 46 45 45 45 45 46 46 46 46 47 46 47 47 47 47 47 47 48 48 48 49 49 49 50 49 50
41 42 43 44 44 45 45 46 46 47 48 48 49 49 48 48 48 48 47 47 47 47 47 48 48 48 49 48 48 48 48 48 48 47 48 48 49 49 50 50 50 51 50
41 42 43 45 45 45 45 46 47 47 48 48 49 49 50 49 49 49 49 49 49 49 49 49 50 50 49 49 48 49 49 49 49 48 48 49 50 50 50 51 51 51 51
41 42 43 44 45 45 45 45 46 47 48 48 48 49 49 50 51 51 50 50 50 50 50 50 50 50 50 49 49 49 49 49 49 49 49 49 50 50 50 51 50 51 51
40 41 42 44 44 45 45 45 46 46 47 47 48 48 48 49 51 51 51 51 51 51 51 51 50 50 50 50 49 48 48 49 49 49 49 49 48 49 49 50 50 50 50
40 41 42 43 44 45 45 45 46 46 46 46 47 48 49 49 50 50 50 50 50 50 50 49 49 49 49 49 49 49 48 48 48 48 48 48 48 48 49 49 48 48 49
40 41 42 42 43 44 45 45 46 46 46 46 47 47 48 49 50 50 50 50 49 48 48 48 48 49 49 49 49 49 49 49 49 49 48 49 49 49 48 48 49 50 50
41 42 42 43 44 44 45 46 46 46 47 47 47 47 48 48 49 49 49 50 49 49 48 48 49 49 49 49 49 49 50 50 50 50 50 50 50 50 50 50 51 51 51
40 41 43 44 44 45 45 46 47 47 47 48 48 49 49 49 49 49 49 49 49 49 49 49 49 49 49 49 49 50 50 50 50 51 51 51 51 51 51 51 51 51 51
41 41 42 43 44 44 45 46 46 47 47 48 48 49 49 49 50 50 49 50 49 50 49 49 49 49 49 49 49 50 50 51 51 52 52 52 52 52 52 52 52 52 52
41 42 42 43 43 44 44 45 46 47 47 48 48 49 49 50 50 50 50 50 50 49 49 48 48 49 49 49 49 50 50 51 51 51 52 52 52 53 53 53 53 53 53
40 41 41 42 43 43 44 45 45 46 47 47 47 47 48 48 49 49 50 50 49 49 48 48 48 48 48 49 49 49 50 50 51 51 52 52 52 53 53 53 53 54 54
39 39 40 41 42 43 44 44 45 45 45 46 46 47 47 47 47 47 47 47 47 48 48 47 47 47 48 48 49 50 50 50 50 51 52 52 52 52 53 53 53 53 54
37 39 39 40 41 42 43 43 44 44 44 45 45 45 45 45 45 46 45 45 46 45 46 46 46 47 47 47 48 49 49 50 50 50 51 51 51 52 52 53 53 53 53
37 38 39 39 40 40 41 41 41 42 42 42 42 43 43 43 44 44 44 44 44 44 44 45 45 45 45 46 46 47 47 48 49 50 50 51 51 52 52 53 53 53 52
37 38 38 38 38 38 39 39 39 40 40 41 41 41 41 41 42 42 43 43 43 43 43 44 44 45 45 46 46 46 47 47 48 49 49 50 50 51 51 51 51 51 51
36 37 37 37 37 37 37 37 38 38 39 39 39 39 39 40 41 41 41 42 42 43 43 44 44 45 45 46 46 46 47 47 47 48 48 48 49 49 49 49 49 49 50
35 35 36 36 36 35 35 35 36 37 37 38 39 39 40 40 40 41 41 42 42 43 44 44 45 45 46 47 47 47 47 47 47 48 48 48 48 48 48 48 48 48 48
34 34 34 34 34 34 34 35 35 36 37 37 38 39 39 40 40 41 41 42 43 44 44 45 45 46 47 47 48 48 48 47 47 47 47 47 47 47 47 47 47 46 46
32 32 32 32 33 33 33 34 35 35 35 36 37 38 39 40 41 41 42 43 44 44 45 45 46 47 47 47 47 47 47 47 47 47 48 47 47 46 46 46 45 45 44
31 31 31 32 32 32 33 34 34 35 36 36 37 38 39 40 40 41 42 43 43 44 44 45 46 46 46 46 46 47 47 47 47 47 47 46 46 45 45 44 43 43 42
31 32 31 32 32 33 34 34 35 35 36 36 37 38 39 40 41 41 42 42 42 43 43 44 44 44 45 45 45 45 45 46 46 46 45 45 44 44 43 42 42 41 40
31 31 31 32 32 33 34 35 35 35 36 36 37 37 38 39 40 40 40 40 41 41 41 42 43 43 43 44 44 44 44 45 44 44 43 43 43 42 42 41 40 40 39
32 32 32 33 33 34 34 35 35 36 36 37 37 37 38 38 38 39 39 39 40 40 41 41 41 42 42 42 42 42 42 42 42 42 41 41 41 41 40 40 39 39 39
32 33 33 34 35 35 35 35 35 36 36 37 37 37 37 38 38 39 39 39 39 40 40 41 41 41 41 41 40 40 40 39 39 40 40 40 39 39 39 38 38 38 38
32 33 34 34 35 35 35 35 35 35 36 36 37 37 37 37 38 39 39 39 40 40 40 40 40 40 39 39 38 38 38 38 38 38 38 38 37 37 37 37 36 36 36
Wind_Direction
253 253 254 255 256 256 257 257 257 257 259 259 259 260 261 262 265 266 267 268 269 271 271 271 272 273 273 273 273 272 272 272 272 273 274 274 275 276 278 277 275 274 273
254 254 255 255 256 256 257 257 257 258 259 260 260 260 262 263 265 266 268 268 270 270 271 272 272 273 274 273 273 273 272 272 273 273 274 275 276 277 278 277 276 275 274
255 255 256 256 257 257 258 258 258 258 260 261 261 261 262 263 264 266 267 268 269 270 271 272 273 273 274 274 274 273 273 272 273 273 274 276 276 277 278 277 276 275 274
257 257 257 258 258 258 258 258 259 259 260 262 262 263 263 264 265 267 268 268 269 270 271 272 272 273 273 274 274 273 273 272 272 272 274 275 276 277 278 278 277 277 275
258 258 258 258 258 260 260 260 261 261 260 261 262 263 264 265 265 267 267 268 269 270 271 272 272 272 272 273 273 273 273 272 272 273 273 275 277 278 278 279 278 278 275
259 260 260 260 260 261 261 260 261 261 261 262 262 263 264 264 265 267 268 269 270 270 270 271 271 271 272 272 273 273 273 272 272 273 273 274 275 277 278 278 278 278 276
260 261 261 261 262 262 261 261 261 261 262 262 262 263 264 265 266 267 268 269 270 270 270 270 270 271 271 271 272 272 272 272 272 273 272 273 275 276 277 278 279 278 277
262 263 263 263 263 263 263 262 262 262 263 263 263 263 264 266 266 267 268 269 270 271 271 270 271 271 271 271 270 271 272 272 272 272 272 273 275 276 277 278 279 279 278
263 263 264 264 264 264 265 265 264 264 264 264 265 265 265 265 267 268 269 270 270 271 271 271 271 271 271 271 271 271 272 272 272 273 274 274 274 276 277 278 278 278 278
264 264 265 266 266 266 265 265 265 266 266 266 266 266 267 267 267 268 269 269 270 271 271 271 271 270 270 271 271 271 271 272 272 274 275 275 275 276 276 277 278 278 279
267 266 266 266 267 267 267 266 267 267 267 267 267 268 268 268 269 269 269 269 270 270 270 270 270 270 270 271 272 272 272 273 273 274 275 275 276 276 276 277 278 279 280
269 268 267 267 267 268 267 267 267 268 268 268 268 269 269 270 270 270 270 270 270 270 270 271 270 270 271 272 272 273 273 274 274 274 275 276 276 276 276 277 279 280 280
269 269 269 268 268 269 268 268 268 268 268 269 269 269 269 270 270 270 270 270 270 270 271 270 270 270 271 272 272 273 273 274 275 275 275 276 276 276 277 277 279 280 281
271 271 271 271 271 270 269 269 268 268 269 270 270 270 270 270 270 270 271 271 271 271 271 271 271 272 272 273 273 273 274 274 275 275 276 276 276 277 277 278 279 280 281
273 273 273 273 273 272 271 270 270 270 270 271 271 271 270 270 270 270 271 271 272 272 271 271 272 272 272 273 274 274 275 275 275 276 276 277 277 278 278 278 279 280 281
274 275 275 275 274 273 272 271 271 271 271 271 271 272 271 271 270 270 271 271 271 271 271 272 272 273 273 274 275 275 275 276 276 277 277 277 278 278 279 279 280 280 281
276 276 276 275 275 274 273 272 272 272 272 272 272 272 272 272 272 271 271 270 270 271 271 272 272 273 274 275 276 276 276 277 277 277 278 278 278 278 279 280 280 281 281
278 277 276 276 275 275 274 274 274 274 273 272 272 272 272 272 272 271 271 271 271 272 272 273 273 274 275 276 276 277 277 277 277 277 278 278 279 279 279 280 280 281 282
280 279 278 277 276 276 276 276 276 275 275 273 272 272 272 272 272 272 272 272 273 273 273 274 274 275 276 276 276 277 277 277 277 277 278 279 279 279 280 280 281 281 282
281 280 280 279 278 277 278 278 278 277 276 274 274 273 273 273 273 273 273 274 274 275 275 275 276 276 277 277 276 276 276 276 277 277 278 278 279 280 280 280 281 281 281
282 281 281 280 279 279 279 279 279 279 278 277 276 276 275 275 274 275 275 275 276 276 276 277 277 277 277 277 276 276 276 276 276 277 277 278 278 279 280 280 280 280 281
283 283 282 282 281 280 280 280 280 279 279 278 278 277 277 276 276 276 276 276 277 277 277 278 277 278 277 277 277 277 276 276 276 276 276 276 277 277 278 279 280 280 280
284 285 284 284 283 283 282 282 281 280 280 280 280 280 279 278 277 277 277 277 278 279 279 279 279 278 278 277 277 276 276 276 276 275 275 275 275 276 277 278 278 279 280
285 285 285 285 285 285 283 282 281 281 281 282 281 281 281 279 278 278 278 278 279 280 280 280 280 279 279 278 278 277 276 276 275 274 274 274 274 275 276 276 277 278 279
286 286 286 286 286 286 285 283 283 283 283 283 283 282 281 280 280 279 279 279 280 281 281 281 281 280 279 279 278 277 276 275 275 274 274 274 274 274 275 276 276 277 278
289 289 288 288 288 287 286 285 285 284 285 284 284 283 282 282 281 281 280 281 281 281 281 281 280 280 279 279 279 278 277 276 276 275 275 274 274 274 275 275 276 277 277
Height
5610 5613 5615 5617 5619 5620 5622 5624 5626 5627 5629 5630 5631 5632 5633 5633 5633 5634 5634 5633 5633 5633 5633 5633 5632 5632 5631 5630 5630 5629 5629 5629 5630 5630 5629 5628 5627 5626 5625 5624 5623 5623 5623
5600 5602 5604 5606 5607 5609 5611 5612 5613 5615 5616 5618 5619 5620 5620 5621 5621 5622 5622 5621 5621 5621 5621 5620 5620 5619 5618 5618 5617 5616 5616 5616 5617 5617 5616 5615 5614 5613 5612 5611 5610 5609 5609
5589 5591 5593 5594 5596 5598 5599 5600 5601 5603 5604 5605 5606 5607 5608 5608 5609 5609 5609 5609 5609 5608 5608 5608 5607 5606 5606 5605 5604 5603 5603 5603 5603 5603 5603 5602 5601 5600 5599 5597 5596 5595 5595
5578 5579 5581 5583 5584 5586 5587 5588 5589 5590 5591 5592 5593 5594 5595 5595 5595 5596 5596 5596 5596 5595 5595 5594 5594 5593 5592 5591 5591 5590 5590 5590 5590 5590 5590 5589 5588 5586 5585 5584 5583 5581 5581
5567 5568 5569 5571 5572 5573 5574 5576 5577 5577 5578 5579 5580 5581 5581 5582 5582 5582 5582 5582 5582 5582 5581 5581 5580 5579 5578 5578 5577 5577 5577 5577 5577 5577 5577 5576 5575 5573 5572 5570 5569 5568 5567
5556 5557 5558 5559 5560 5560 5562 5563 5564 5565 5565 5566 5567 5567 5568 5568 5568 5568 5569 5568 5568 5568 5568 5567 5566 5565 5564 5564 5564 5564 5564 5564 5564 5563 5563 5562 5562 5560 5559 5557 5556 5555 5555
5545 5546 5546 5547 5548 5548 5549 5550 5551 5552 5553 5553 5554 5554 5554 5554 5555 5555 5554 5554 5554 5554 5553 5553 5552 5551 5550 5550 5550 5550 5550 5550 5550 5550 5550 5549 5548 5548 5546 5545 5543 5541 5540
5533 5534 5534 5535 5535 5536 5537 5537 5538 5539 5539 5540 5540 5541 5541 5541 5541 5541 5541 5541 5540 5540 5539 5539 5538 5537 5537 5536 5537 5537 5536 5536 5536 5536 5536 5536 5534 5533 5533 5532 5530 5528 5526
5521 5522 5522 5522 5523 5523 5524 5524 5525 5525 5526 5526 5526 5527 5527 5527 5527 5526 5526 5526 5526 5526 5525 5524 5524 5524 5523 5523 5523 5523 5523 5522 5522 5521 5521 5521 5520 5519 5518 5517 5516 5514 5513
5509 5510 5510 5510 5510 5510 5510 5511 5511 5512 5512 5512 5512 5513 5512 5512 5512 5512 5511 5512 5512 5511 5510 5510 5510 5509 5509 5508 5509 5509 5509 5508 5508 5507 5507 5506 5506 5505 5503 5503 5501 5500 5498
5497 5498 5498 5497 5497 5497 5497 5498 5498 5498 5498 5498 5499 5499 5498 5498 5497 5497 5497 5497 5496 5496 5496 5496 5495 5495 5495 5494 5495 5495 5495 5494 5494 5493 5492 5492 5491 5490 5488 5487 5486 5484 5483
5485 5485 5485 5485 5485 5484 5484 5484 5484 5484 5484 5484 5484 5484 5483 5483 5482 5482 5482 5482 5482 5482 5481 5481 5481 5481 5481 5481 5480 5480 5480 5480 5479 5478 5478 5477 5476 5475 5473 5472 5470 5468 5467
5473 5473 5473 5472 5472 5471 5471 5471 5470 5470 5470 5470 5470 5470 5469 5469 5468 5468 5467 5467 5467 5467 5467 5467 5467 5467 5467 5466 5466 5466 5465 5465 5465 5464 5463 5462 5461 5460 5458 5457 5455 5453 5451
5462 5461 5460 5460 5459 5458 5458 5457 5457 5456 5456 5456 5455 5455 5455 5455 5454 5454 5453 5453 5453 5453 5453 5453 5453 5453 5453 5452 5452 5451 5451 5451 5450 5449 5448 5447 5446 5444 5443 5442 5440 5438 5436
5450 5449 5448 5447 5446 5445 5444 5444 5443 5443 5442 5442 5442 5442 5441 5441 5441 5440 5440 5440 5440 5440 5439 5439 5439 5439 5439 5438 5438 5437 5437 5436 5435 5435 5433 5432 5430 5429 5428 5426 5425 5423 5421
5439 5437 5436 5434 5433 5433 5432 5431 5430 5430 5429 5429 5428 5428 5428 5428 5427 5427 5427 5427 5426 5426 5426 5426 5426 5425 5425 5424 5424 5423 5422 5421 5420 5419 5418 5417 5415 5414 5412 5411 5409 5407 5406
5427 5426 5424 5423 5422 5421 5420 5419 5419 5418 5417 5416 5416 5415 5415 5415 5414 5414 5414 5414 5413 5413 5413 5413 5413 5412 5411 5411 5410 5409 5408 5407 5406 5404 5403 5402 5400 5399 5397 5396 5394 5392 5391
5416 5415 5413 5412 5411 5410 5409 5408 5407 5406 5406 5404 5404 5403 5403 5402 5402 5402 5401 5401 5400 5400 5400 5399 5399 5398 5397 5396 5395 5394 5393 5392 5391 5390 5388 5387 5386 5384 5383 5381 5380 5378 5376
5406 5404 5403 5401 5400 5399 5398 5397 5396 5394 5393 5393 5392 5391 5390 5390 5389 5389 5388 5388 5387 5387 5386 5385 5384 5383 5382 5381 5380 5380 5379 5377 5376 5375 5374 5372 5371 5369 5368 5367 5365 5363 5362
5396 5394 5392 5391 5389 5388 5387 5386 5384 5383 5382 5380 5380 5379 5378 5377 5377 5376 5375 5374 5374 5373 5372 5371 5370 5368 5367 5366 5365 5364 5363 5362 5361 5360 5359 5358 5356 5355 5354 5352 5351 5349 5348
5386 5384 5382 5381 5379 5378 5376 5375 5373 5372 5370 5369 5368 5367 5366 5365 5364 5363 5362 5361 5360 5359 5357 5356 5355 5354 5352 5351 5350 5349 5348 5347 5346 5345 5344 5343 5342 5341 5339 5338 5337 5335 5334
5376 5374 5372 5370 5369 5367 5366 5364 5362 5361 5359 5357 5356 5354 5353 5352 5351 5350 5349 5347 5346 5345 5343 5342 5340 5339 5338 5336 5335 5334 5333 5332 5331 5330 5329 5328 5327 5326 5325 5324 5323 5322 5321
5366 5364 5362 5360 5358 5356 5355 5353 5351 5349 5348 5346 5344 5342 5341 5339 5338 5337 5335 5334 5332 5331 5329 5328 5326 5324 5323 5321 5320 5319 5318 5317 5316 5315 5314 5314 5313 5313 5312 5311 5310 5309 5308
5356 5354 5352 5350 5348 5346 5344 5342 5340 5338 5336 5334 5332 5330 5328 5326 5325 5324 5322 5321 5319 5317 5315 5314 5312 5310 5309 5307 5306 5304 5303 5302 5301 5301 5300 5300 5300 5299 5299 5298 5297 5297 5296
5345 5343 5341 5339 5337 5335 5332 5330 5328 5326 5324 5322 5320 5318 5316 5314 5313 5311 5309 5307 5306 5304 5302 5300 5299 5297 5295 5293 5292 5291 5289 5288 5288 5287 5287 5287 5287 5286 5286 5285 5285 5284 5283
5335 5332 5330 5328 5325 5323 5321 5319 5316 5314 5312 5310 5308 5306 5304 5302 5300 5298 5296 5295 5293 5291 5289 5287 5285 5283 5282 5280 5279 5277 5276 5275 5275 5274 5274 5274 5274 5274 5273 5273 5272 5272 5271